LiveATC.Net - Listen to live air traffic control over the Internet!


ICAO: ENAT  IATA: ALF   Airport: Alta Airport
City: Alta
Country: Norway   Continent: Europe
ENAT METAR Weather: ENAT 191550Z VRB02KT 6000 -SN VV020 M08/M11 Q0996 RMK WIND 700FT VRB01KT
ENAT Flight Activity (FlightAware)
ENAT Webcam:  (Airport Webcams) 

ENAT Twr/App/Control
Feed Status: UP   Listeners: 0
Listen in your browser - HTML5 player (in browser, HTML5)
Click here to listen with your own player (launches your MP3 player)
ENAT Twr/App/Control Audio Archives
FacilityFrequency
Alta Tower (to boat, Harbour Channel 12)156.600
Alta Tower (to vehicle)462.400
Alta Tower/Approach120.400
Norway Control126.700

NOTICE

Unauthorized use prohibited. See LiveATC.net Terms of Service


Find LiveATC Audio Streams


Airport/ARTCC Code

Frequency Search
(e.g., 124.400, 128.75)
Site-wide search
 


Browse LiveATC Feeds
Top 50 LiveATC Feeds
LiveATC Feed Map
Bad Weather Areas

LiveATC FAQ
Offer LiveATC feed
Contact LiveATC.net
Press Inquiries

LiveATC on iPhone
LiveATC on Android

Windows Phone
Windows 8/10

LiveATC Mobile
(Mobile browser)

ATC Audio Archives
Interesting Recordings

LiveATC Forums


Home Page
About LiveATC.net
Make a Donation
Terms of Use
Privacy Policy

Canadian Air Freqs

AIRMETs/SIGMETs

FAA Airport Status
Nat'l Airspace Status
Arrival Demand Charts


Server Software By:
Icecast.org
Liquidsoap